{"data":{"norad_id":45027,"epoch":"2026-05-25T03:46:39.567360Z","epoch_age_seconds":61180,"freshness":"FRESH","line1":"1 45027U 20005B   26145.15740240  .00000047  00000+0  00000+0 0  9995","line2":"2 45027   0.0712  98.1588 0000909 171.0776  37.3810  1.00270521 24103","mean_motion":1.00270521,"eccentricity":9.09e-5,"inclination_deg":0.0712,"raan_deg":98.1588,"arg_perigee_deg":171.0776,"mean_anomaly_deg":37.381,"bstar":0,"rev_number":2410,"period_min":1436.115007321,"perigee_km":35783.116503652,"apogee_km":35790.782116343,"semimajor_km":42165.086309998,"source":"CELESTRAK","updated_at":"2026-05-25T13:38:14.092659Z"}}